Temp
3 3 3 4 4 4 5 4 3 4 5 5 5 5 5 5 5 5 3 3 3 3 1 1 1 2 2 0 0 0 0 -0 -0 0 1 1 0 -0 -1 -1 -1 -1 -2
2 2 2 3 3 4 4 2 3 3 4 5 5 5 5 5 5 5 4 3 3 2 2 1 1 1 1 -0 0 0 -0 -0 -0 -0 0 -0 -1 -1 -1 -1 -1 -2 -2
1 2 2 2 3 3 4 3 2 2 3 4 5 5 5 5 5 4 3 3 2 2 2 1 1 1 1 -0 0 0 -0 -1 -1 -1 -1 -1 -2 -1 -1 -1 -1 -2 -2
1 1 1 1 2 2 3 4 1 3 3 3 5 5 5 5 5 4 3 3 2 2 2 2 1 1 0 -0 -0 0 0 -1 -1 -2 -2 -1 -2 -2 -2 -2 -2 -3 -2
1 1 1 1 0 1 2 3 3 2 3 3 3 4 5 5 5 4 3 2 2 2 2 1 1 1 0 0 -0 0 -0 -0 -1 -2 -2 -1 -2 -3 -3 -2 -2 -2 -2
0 -0 0 0 0 -0 -1 0 1 2 3 2 2 4 4 5 4 3 2 3 1 2 1 1 1 1 0 1 -0 -1 -0 -1 -1 -1 -2 -1 -2 -2 -3 -3 -2 -2 -2
-0 -1 -1 -0 0 0 -0 1 1 2 2 2 2 3 4 4 3 3 2 2 2 1 1 1 0 1 1 0 1 -0 -1 -1 -1 -1 -1 -1 -2 -2 -2 -2 -2 -2 -2
-1 -1 -1 -1 -0 -0 -0 0 -0 2 2 2 2 2 3 3 3 3 3 2 2 1 0 0 1 0 1 1 -0 -1 -1 -1 -1 -1 -1 -1 -2 -2 -2 -2 -2 -2 -2
-2 -1 -1 -1 -0 -0 -1 -0 0 1 2 1 2 2 3 3 3 3 2 2 2 2 1 1 0 0 0 0 -0 -1 -0 -1 -1 -1 -1 -2 -2 -2 -2 -2 -2 -2 -2
-2 -1 -1 -1 -0 -0 -1 -1 -0 1 1 0 2 2 3 3 3 3 3 2 2 2 1 -0 0 0 0 0 -0 -0 -1 -0 -1 -1 -1 -1 -2 -2 -2 -2 -2 -2 -2
-2 -2 -1 -1 -0 0 -0 -1 0 1 1 1 1 1 2 2 3 3 3 3 2 2 1 1 0 -0 0 -0 -1 -1 -1 -0 -1 -1 -1 -2 -2 -2 -1 -2 -2 -2 -2
-2 -2 -1 -0 0 0 -0 -1 -1 0 0 1 0 1 2 2 2 2 2 2 2 1 1 1 1 -0 -1 -1 -1 -1 -1 -1 -2 -1 -2 -2 -2 -2 -2 -2 -3 -3 -3
-2 -2 -1 0 0 -0 -1 -1 -0 -0 0 -0 1 1 1 1 2 2 2 2 2 1 1 0 -0 -1 -1 -1 -1 -1 -1 -2 -2 -2 -2 -2 -2 -2 -3 -2 -3 -4 -5
-3 -2 -3 -1 -1 -1 -2 -1 -1 -1 0 -0 1 -0 1 0 1 2 2 2 2 1 0 -0 -1 -1 -1 -2 -2 -1 -1 -1 -1 -2 -2 -2 -2 -2 -3 -4 -5 -5 -6
-4 -5 -5 -4 -3 -2 -2 -1 -2 -2 -0 0 -1 -1 0 0 -0 -0 1 1 0 0 -1 -1 -1 -2 -1 -2 -2 -2 -1 -1 -2 -2 -3 -3 -4 -4 -5 -5 -6 -7 -7
-5 -5 -5 -4 -4 -3 -3 -2 -3 -2 -1 -1 -0 -1 -0 -0 -0 -1 -1 -1 -1 -1 -1 -1 -1 -1 -2 -2 -1 -2 -2 -2 -2 -3 -4 -4 -5 -5 -7 -7 -7 -7 -7
-5 -5 -5 -5 -4 -4 -3 -4 -4 -2 -1 -1 -2 -1 -0 -1 -1 -1 -0 -1 -1 -1 -2 -1 -2 -1 -2 -2 -2 -2 -3 -3 -4 -5 -5 -6 -7 -7 -7 -8 -8 -8 -8
-6 -5 -5 -4 -4 -4 -4 -5 -5 -4 -2 -2 -2 -2 -2 -2 -1 -1 -0 -1 -1 -1 -1 -2 -2 -2 -3 -3 -4 -4 -5 -5 -6 -6 -8 -8 -8 -8 -8 -8 -9 -9 -9
-7 -6 -6 -5 -5 -5 -6 -7 -6 -5 -4 -3 -2 -2 -2 -2 -1 -1 -1 -1 -2 -2 -4 -4 -5 -5 -5 -5 -6 -6 -7 -7 -8 -9 -9 -9 -9 -9 -9 -9 -10 -10 -11
-8 -7 -7 -6 -6 -6 -7 -7 -7 -6 -6 -5 -4 -4 -2 -3 -3 -3 -3 -3 -4 -5 -5 -5 -6 -7 -7 -8 -7 -8 -10 -10 -9 -10 -9 -10 -10 -10 -10 -10 -11 -11 -12
-9 -9 -8 -8 -8 -8 -8 -8 -8 -8 -7 -6 -6 -5 -5 -5 -5 -5 -6 -6 -7 -7 -8 -8 -8 -8 -8 -9 -11 -13 -12 -11 -10 -10 -10 -10 -11 -11 -11 -12 -12 -12 -13
-10 -10 -9 -9 -9 -9 -10 -9 -10 -9 -9 -8 -8 -8 -8 -8 -8 -8 -9 -9 -9 -8 -9 -9 -9 -9 -11 -13 -14 -13 -12 -12 -11 -11 -11 -11 -11 -12 -12 -12 -13 -13 -14
-10 -10 -10 -10 -10 -10 -10 -10 -10 -10 -10 -10 -10 -10 -10 -10 -10 -10 -10 -10 -10 -10 -10 -11 -12 -12 -13 -13 -13 -12 -12 -12 -12 -12 -12 -12 -12 -12 -13 -13 -14 -15 -16
-11 -11 -11 -11 -11 -11 -11 -11 -11 -11 -11 -11 -11 -11 -11 -11 -11 -11 -11 -10 -10 -11 -12 -14 -14 -13 -13 -14 -13 -13 -12 -12 -12 -12 -12 -13 -13 -14 -14 -15 -16 -16 -16
-11 -11 -11 -12 -12 -12 -11 -11 -12 -12 -12 -12 -11 -11 -11 -11 -11 -11 -11 -11 -13 -15 -15 -14 -14 -14 -14 -13 -13 -13 -12 -13 -13 -13 -14 -14 -14 -15 -15 -16 -16 -16 -16
-12 -12 -12 -12 -12 -12 -12 -12 -12 -12 -12 -12 -12 -12 -12 -12 -12 -12 -13 -15 -15 -15 -14 -14 -15 -15 -15 -14 -14 -14 -14 -14 -14 -14 -14 -15 -15 -16 -16 -16 -16 -17 -17
Height
3014 3012 3011 3010 3010 3011 3012 3014 3017 3021 3024 3027 3032 3034 3036 3036 3036 3036 3035 3037 3037 3037 3035 3036 3040 3046 3053 3059 3066 3073 3081 3085 3086 3094 3098 3102 3105 3108 3110 3113 3115 3117 3117
3008 3007 3005 3004 3003 3003 3005 3007 3011 3014 3018 3020 3023 3026 3029 3029 3030 3029 3029 3030 3031 3032 3029 3030 3033 3037 3043 3051 3057 3064 3072 3076 3083 3088 3092 3095 3098 3101 3105 3106 3108 3109 3109
3002 3001 3000 2997 2995 2995 2997 2999 3004 3007 3009 3012 3015 3019 3021 3022 3022 3022 3023 3024 3025 3027 3025 3024 3028 3031 3037 3043 3052 3057 3063 3069 3077 3081 3084 3087 3091 3095 3097 3100 3100 3101 3101
2997 2995 2994 2992 2989 2987 2989 2990 2994 2999 3002 3005 3007 3011 3014 3015 3015 3016 3017 3018 3019 3021 3022 3021 3024 3027 3032 3038 3045 3050 3056 3062 3068 3071 3075 3079 3082 3087 3090 3092 3092 3092 3092
2990 2989 2987 2986 2984 2980 2979 2982 2985 2991 2994 2997 2999 3003 3006 3007 3008 3010 3010 3011 3013 3014 3015 3016 3018 3020 3025 3029 3034 3042 3048 3053 3058 3062 3065 3070 3071 3077 3081 3084 3082 3083 3083
2983 2981 2980 2978 2977 2974 2972 2974 2977 2983 2987 2989 2992 2995 2998 3000 3002 3003 3004 3004 3006 3007 3009 3010 3013 3016 3019 3024 3030 3034 3041 3044 3048 3052 3058 3060 3064 3069 3072 3074 3073 3073 3073
2975 2973 2972 2971 2969 2967 2965 2967 2970 2974 2978 2980 2984 2987 2991 2993 2995 2996 2997 2998 2999 3001 3002 3003 3003 3005 3011 3016 3021 3027 3031 3036 3041 3047 3050 3053 3054 3059 3061 3062 3063 3064 3064
2966 2965 2964 2963 2961 2960 2959 2959 2962 2966 2970 2974 2977 2980 2984 2986 2988 2989 2990 2991 2993 2995 2995 2996 2996 2996 3001 3006 3013 3019 3024 3028 3034 3037 3040 3045 3048 3050 3051 3053 3054 3055 3057
2958 2957 2957 2956 2955 2953 2953 2951 2954 2956 2961 2966 2969 2973 2976 2979 2980 2982 2983 2985 2986 2987 2988 2988 2988 2990 2994 3000 3006 3011 3015 3020 3025 3030 3033 3037 3040 3041 3043 3044 3046 3048 3050
2951 2949 2948 2948 2947 2946 2945 2943 2945 2949 2953 2957 2960 2964 2968 2971 2973 2976 2978 2980 2981 2982 2982 2981 2981 2983 2987 2993 2999 3004 3010 3012 3019 3023 3026 3028 3032 3035 3036 3038 3040 3041 3042
2944 2942 2940 2939 2938 2937 2937 2936 2938 2939 2942 2947 2952 2956 2960 2963 2966 2969 2972 2974 2976 2978 2978 2977 2978 2979 2982 2986 2991 2998 3003 3006 3011 3017 3019 3022 3025 3027 3029 3031 3033 3034 3033
2936 2934 2931 2930 2928 2928 2928 2928 2929 2931 2934 2938 2943 2947 2952 2956 2959 2963 2966 2968 2971 2973 2975 2976 2976 2977 2980 2984 2989 2994 2998 3001 3005 3008 3012 3015 3018 3021 3023 3025 3026 3025 3024
2927 2924 2921 2919 2918 2918 2918 2918 2918 2921 2924 2925 2934 2939 2944 2948 2952 2956 2960 2963 2965 2968 2970 2972 2974 2977 2979 2983 2987 2991 2995 2998 3001 3005 3008 3010 3013 3015 3017 3017 3016 3016 3016
2919 2915 2911 2908 2908 2909 2908 2907 2905 2909 2914 2919 2924 2931 2936 2941 2945 2949 2954 2956 2959 2963 2966 2969 2972 2975 2979 2981 2985 2987 2991 2994 2996 2999 3001 3003 3005 3007 3007 3008 3009 3009 3009
2910 2907 2903 2902 2902 2901 2899 2896 2895 2898 2901 2911 2917 2925 2929 2935 2939 2944 2948 2952 2956 2959 2962 2965 2968 2971 2975 2978 2981 2984 2985 2987 2990 2993 2995 2996 2997 2998 2999 3000 3001 3002 3003
2902 2901 2898 2897 2895 2892 2891 2888 2887 2891 2896 2903 2908 2915 2919 2925 2931 2937 2943 2947 2951 2955 2958 2961 2964 2966 2969 2973 2976 2977 2980 2982 2984 2986 2987 2989 2991 2992 2994 2996 2998 2998 2998
2895 2894 2893 2892 2890 2887 2883 2880 2879 2883 2887 2894 2901 2905 2911 2916 2921 2928 2934 2939 2943 2947 2950 2953 2956 2959 2961 2964 2966 2969 2971 2974 2976 2979 2982 2983 2985 2988 2990 2991 2991 2991 2991
2890 2888 2888 2886 2885 2882 2878 2875 2873 2875 2879 2885 2892 2897 2903 2909 2915 2920 2924 2930 2934 2938 2942 2945 2948 2951 2953 2956 2960 2963 2966 2969 2971 2974 2976 2980 2982 2983 2984 2986 2987 2987 2986
2886 2885 2883 2882 2879 2877 2874 2871 2870 2871 2873 2877 2884 2890 2894 2900 2906 2910 2916 2922 2923 2929 2932 2937 2941 2945 2949 2952 2955 2958 2961 2964 2967 2971 2974 2976 2978 2978 2980 2981 2982 2981 2981
2885 2882 2880 2879 2877 2875 2872 2870 2870 2870 2872 2874 2880 2886 2890 2895 2900 2904 2909 2915 2920 2925 2930 2934 2939 2943 2946 2949 2952 2955 2959 2963 2967 2969 2971 2972 2974 2975 2975 2976 2976 2976 2975
2886 2883 2881 2879 2877 2875 2874 2874 2874 2874 2874 2877 2880 2885 2889 2894 2897 2902 2906 2911 2917 2922 2926 2932 2936 2940 2944 2946 2950 2955 2959 2962 2964 2967 2968 2969 2970 2971 2971 2971 2971 2970 2969
2890 2886 2884 2882 2881 2879 2879 2878 2879 2881 2882 2883 2884 2887 2892 2896 2900 2904 2908 2912 2916 2920 2926 2931 2934 2937 2940 2945 2950 2955 2958 2959 2962 2964 2965 2965 2966 2966 2966 2965 2965 2964 2963
2897 2893 2890 2888 2886 2884 2884 2884 2884 2886 2887 2889 2891 2893 2896 2900 2903 2908 2911 2914 2919 2922 2926 2930 2933 2937 2941 2946 2950 2952 2955 2957 2958 2960 2961 2960 2961 2961 2962 2962 2959 2957 2956
2901 2899 2897 2895 2892 2890 2890 2890 2890 2891 2893 2895 2897 2900 2902 2906 2908 2911 2912 2915 2918 2922 2927 2931 2935 2939 2942 2945 2949 2952 2953 2954 2955 2955 2956 2958 2958 2957 2955 2953 2951 2951 2950
2904 2903 2901 2900 2899 2898 2897 2897 2896 2897 2898 2900 2902 2904 2906 2909 2911 2912 2914 2917 2920 2925 2930 2932 2934 2938 2941 2944 2947 2948 2950 2950 2952 2953 2954 2953 2951 2949 2949 2948 2946 2944 2943
2906 2905 2903 2902 2902 2902 2901 2901 2901 2902 2903 2904 2905 2907 2909 2910 2912 2914 2916 2919 2923 2926 2930 2932 2934 2937 2940 2942 2944 2946 2946 2947 2947 2947 2947 2946 2945 2944 2943 2941 2939 2938 2936
Wind_Speed
21 22 22 21 27 26 26 26 27 36 35 32 31 32 30 27 25 25 23 24 21 15 25 37 45 41 44 55 46 39 35 33 33 26 27 28 28 25 25 29 28 32 30
20 21 23 23 23 27 28 28 32 33 37 34 33 33 31 27 24 23 22 24 24 21 16 33 30 37 40 53 50 44 38 38 36 28 26 26 27 28 30 29 31 36 36
28 24 22 23 23 26 29 31 34 37 36 35 34 33 30 27 23 22 23 25 24 21 13 18 28 33 43 51 45 50 46 39 36 35 34 31 30 31 30 31 32 34 38
30 30 26 23 22 24 28 32 37 39 41 39 36 32 31 26 24 23 23 24 24 24 22 13 12 30 45 42 54 38 44 44 41 41 47 34 32 33 34 36 34 38 42
37 33 31 27 23 24 25 30 34 38 39 37 37 34 33 28 24 19 20 24 27 24 22 19 21 22 35 56 56 51 42 48 50 50 48 39 40 37 39 38 35 38 43
38 33 31 29 26 22 20 24 31 37 38 37 39 36 33 29 23 20 19 21 23 23 23 22 25 25 31 47 60 60 53 52 55 54 50 39 44 37 44 41 47 34 30
38 32 29 30 28 24 23 23 29 36 38 36 39 37 33 29 24 22 22 22 23 22 25 21 27 38 30 41 57 50 46 53 49 46 43 43 40 42 43 36 27 27 29
35 30 28 28 27 24 22 24 31 31 35 35 37 38 32 30 26 23 22 20 23 25 26 26 28 32 37 40 53 42 40 43 41 39 39 45 42 48 34 27 30 32 29
28 28 28 27 27 25 21 27 28 33 36 38 36 38 34 29 26 22 21 22 22 22 22 25 25 28 40 51 50 45 39 42 40 44 50 40 35 29 29 28 28 26 30
24 27 28 28 27 26 26 24 37 34 38 40 36 36 34 29 26 23 22 21 22 20 18 14 18 29 27 35 50 39 48 41 41 40 45 41 37 29 25 26 28 29 30
27 27 28 30 30 29 28 22 41 39 34 38 38 36 33 29 27 24 22 20 19 15 12 10 15 21 24 21 33 46 40 41 40 41 36 34 27 24 24 23 25 31 32
29 30 30 31 32 30 29 25 36 38 38 44 41 37 34 30 28 26 23 21 20 18 17 12 11 14 18 24 31 34 26 27 30 28 25 22 22 21 22 25 29 31 31
28 31 28 28 31 28 29 27 31 44 47 42 38 38 36 31 30 29 26 23 22 22 21 17 15 18 18 21 23 22 22 19 18 19 21 21 23 23 26 33 31 28 23
32 36 26 26 22 25 24 28 31 45 49 42 40 42 37 32 32 31 29 27 25 24 23 20 17 19 22 22 19 20 19 24 25 24 26 29 28 28 29 25 22 18 17
30 26 21 17 19 22 22 24 26 36 49 47 39 41 36 31 30 30 29 28 27 27 23 21 20 22 20 19 20 25 31 30 23 27 32 31 26 22 20 19 15 16 17
23 20 18 15 16 20 21 22 23 35 45 42 41 48 34 32 28 28 29 29 28 28 30 28 28 28 25 26 26 26 29 31 31 29 25 22 20 16 12 12 14 15 16
17 15 16 17 17 22 23 17 20 33 43 46 39 43 39 32 32 35 31 28 29 32 29 33 29 32 26 30 33 33 29 26 23 20 18 14 9 10 13 13 13 14 16
14 14 14 12 17 15 18 14 15 27 41 49 51 47 38 37 38 37 38 34 36 35 36 36 35 36 31 30 24 21 20 19 19 16 11 12 12 12 11 12 13 15 16
10 9 10 10 11 9 9 6 8 15 27 37 47 53 50 48 44 44 38 39 40 39 36 33 27 24 22 21 21 21 20 17 13 13 12 11 10 10 11 12 13 15 15
9 7 6 7 6 3 6 6 2 4 13 24 32 39 45 39 39 33 28 29 24 23 24 25 24 22 22 22 21 17 12 12 12 11 9 9 9 10 11 12 13 15 16
12 9 6 4 2 4 6 8 7 1 4 10 17 22 25 24 26 26 26 25 23 23 23 23 22 22 21 18 15 13 11 11 10 9 8 8 9 10 11 12 14 15 17
17 14 11 9 8 8 10 10 8 4 6 11 15 17 19 18 18 20 22 22 23 23 23 22 21 19 16 14 12 11 10 10 9 9 9 10 10 10 12 14 16 17 17
18 17 15 14 14 15 15 15 14 13 12 10 13 16 19 17 17 19 19 18 18 18 19 18 16 13 11 10 12 12 11 10 10 9 8 10 11 13 15 16 16 17 17
14 15 15 15 14 14 14 14 14 13 12 11 13 14 16 15 15 16 17 17 17 17 16 14 13 12 12 10 9 9 9 8 8 9 10 12 13 13 14 16 16 18 20
10 10 10 11 11 11 11 11 11 11 10 9 9 9 10 12 13 14 15 15 14 14 13 13 12 10 7 7 8 8 9 10 11 12 11 12 13 15 16 18 20 21 22
7 7 7 6 6 6 6 7 7 7 7 5 6 7 8 10 12 13 14 15 15 14 11 9 7 7 8 9 11 11 11 11 10 11 12 14 15 17 18 20 22 23 24
Wind_Direction
277 287 287 276 257 250 244 235 228 234 232 237 240 244 250 260 269 272 264 253 257 271 253 229 228 227 232 214 214 216 216 216 225 230 232 236 227 252 246 243 249 251 268
293 295 291 288 265 247 242 223 231 234 237 242 237 241 251 259 266 268 260 249 251 255 267 226 228 228 243 212 212 213 215 218 224 226 231 235 242 240 241 247 254 251 262
305 301 300 292 276 251 240 227 227 237 242 243 243 244 250 259 263 261 251 245 253 253 241 235 227 243 217 212 206 214 214 220 223 229 231 236 241 242 248 256 259 262 261
299 297 297 301 289 261 242 235 221 229 240 245 243 245 250 255 259 255 250 244 248 247 238 219 226 226 223 218 213 203 210 221 224 230 235 230 234 244 255 259 258 263 256
299 297 293 296 300 276 251 236 227 225 239 243 244 244 250 255 257 253 255 252 233 242 246 236 244 237 228 222 216 209 209 215 226 234 238 235 242 244 256 263 255 246 277
290 288 289 292 298 282 260 247 226 220 231 241 243 246 250 252 252 249 251 247 237 235 237 241 249 237 224 223 222 238 216 222 227 232 236 238 246 250 254 254 262 265 258
282 283 287 292 293 291 251 257 231 224 230 237 240 242 245 248 247 249 254 236 237 232 243 241 247 237 233 224 227 225 231 228 235 233 237 244 255 263 270 266 255 259 271
283 279 282 290 293 294 251 244 231 225 234 241 242 245 241 240 242 246 244 241 242 235 247 253 254 248 241 235 223 226 231 232 229 231 237 246 254 251 263 252 259 267 266
285 283 281 284 280 287 276 250 236 236 236 240 243 243 237 234 235 236 239 246 246 245 250 252 241 228 236 233 228 240 227 227 237 232 245 248 262 246 244 248 258 262 264
284 281 277 277 281 286 281 263 223 234 232 240 242 241 232 228 229 228 235 240 233 245 254 265 253 223 216 231 232 240 225 223 240 243 251 259 245 249 249 253 258 260 266
287 283 277 277 274 279 275 286 230 241 236 235 238 233 230 225 224 225 229 230 221 234 234 238 235 218 199 233 237 233 241 237 243 240 246 238 234 241 250 259 267 266 263
288 284 272 270 268 273 266 275 231 240 232 229 231 231 226 223 220 221 222 215 217 223 213 222 219 192 204 209 205 212 219 222 226 224 228 232 239 244 257 261 265 261 272
290 287 273 264 264 265 265 269 267 229 222 227 236 223 227 220 217 217 218 214 219 214 210 210 199 205 203 188 192 196 203 204 214 222 235 244 246 252 261 259 256 263 270
287 292 282 270 265 263 273 278 254 228 214 224 229 215 224 220 218 217 217 216 215 213 210 200 202 192 195 203 199 200 208 223 223 229 235 237 237 244 251 257 262 268 274
290 286 287 270 264 266 285 289 245 234 213 212 219 214 225 221 223 220 219 219 218 217 217 214 213 216 219 219 218 220 229 221 228 245 238 241 244 249 250 255 261 262 265
282 272 277 268 291 283 287 288 252 231 214 217 210 211 218 215 220 222 219 215 213 214 221 220 227 230 228 222 228 229 234 238 242 244 239 241 244 247 255 256 255 265 276
281 261 275 269 298 304 307 280 251 234 216 211 213 216 213 213 212 219 213 228 220 219 223 225 225 226 230 232 225 224 226 228 228 233 232 233 238 235 240 252 267 278 286
287 262 261 257 300 294 307 279 260 235 224 213 209 208 212 210 215 221 218 228 216 220 224 224 225 223 223 218 218 218 222 222 218 217 210 212 219 234 251 264 273 280 285
311 284 266 250 282 322 338 317 261 232 219 219 216 209 211 209 224 215 215 225 218 217 212 210 206 206 209 210 208 206 205 205 195 194 205 216 228 249 261 270 278 285 295
344 337 297 267 278 340 15 14 335 221 224 219 223 224 218 216 218 216 215 217 211 212 214 210 208 203 195 195 198 192 173 182 193 202 215 230 244 259 271 280 288 295 298
16 16 6 348 17 43 41 30 4 335 189 206 205 201 203 192 195 190 182 183 183 188 189 186 188 190 195 186 164 165 179 197 210 217 230 248 260 269 280 288 295 299 301
34 39 41 48 63 73 77 79 76 103 156 165 167 166 160 160 170 168 168 168 171 177 182 182 184 182 166 158 163 180 198 212 223 234 244 256 269 283 289 295 296 295 299
39 46 51 59 67 75 81 87 89 89 98 118 139 147 142 149 155 158 161 164 171 175 173 160 155 149 148 166 186 198 208 217 230 241 258 275 287 291 289 290 297 303 304
28 41 48 54 65 71 75 82 89 95 104 114 126 135 141 151 160 167 166 171 169 159 149 137 143 165 181 190 202 214 224 238 255 265 272 273 276 286 296 302 302 302 306
11 23 35 45 57 66 77 82 90 98 106 115 124 136 150 161 168 167 162 156 146 137 147 163 183 189 188 209 224 238 248 253 257 261 270 284 295 302 303 303 305 307 305
347 356 8 28 46 60 71 81 88 98 107 123 140 153 160 162 162 160 159 161 168 175 185 181 180 197 216 229 237 237 244 252 266 280 288 295 299 301 303 306 306 304 302